Fort Stockton, TX

11:25 AM CST on February 28, 2017 (GMT -0600)
Fort Stockton-Pecos County

Weather History for KFST - March, 2013

Change the Weather History Date:

Saturday, March 30, 2013

  Actual Average Record
Temperature  
Mean Temperature 70 °F -  
Max Temperature 88 °F 72 °F 90 °F (2012)
Min Temperature 52 °F 48 °F 36 °F (2011)
Cooling Degree Days 4    
Growing Degree Days 20 (Base 50)    
Moisture  
Dew Point 33 °F    
Average Humidity 36    
Maximum Humidity 83    
Minimum Humidity 8    
Precipitation  
Precipitation 0.00 in - - ()
Sea Level Pressure  
Sea Level Pressure 29.89 in    
Wind  
Wind Speed 8 mph (WSW)    
Max Wind Speed 16 mph    
Max Gust Speed 21 mph    
Visibility 10 miles    
Events      
Averages and records for this station are not official NWS values.
T = Trace of Precipitation, MM = Missing Value Source: NWS Daily Summary

Daily Weather History Graph

Daily Weather History Graph

Search for Another Location

Airport or City:

Trip Planner

Search our weather history database for the weather conditions in past years. The results will help you decide how hot, cold, wet, or windy it might be!

Date:

Astronomy

Mar. 30, 2013 Rise Set
Actual Time 7:42 AM CDT 8:09 PM CDT
Civil Twilight 7:18 AM CDT 8:34 PM CDT
Nautical Twilight 6:50 AM CDT 9:02 PM CDT
Astronomical Twilight 6:21 AM CDT 9:31 PM CDT
Moon No Moon Rise 9:54 AM CDT (3/30)
Length of Visible Light 13h 15m
Length of Day
12h 27m
Waning Gibbous, 86% of the Moon is Illuminated
Mar 30
Waning Gibbous
Apr 2
Last Quarter
Apr 10
New
Apr 18
First Quarter
Apr 25
Full

Hourly Weather History & Observations

Time (CDT) Temp. Dew Point Humidity Pressure Visibility Wind Dir Wind Speed Gust Speed Precip Events Conditions
12:53 AM 61.0 °F 53.1 °F 75% 29.93 in 10.0 mi South 11.5 mph - N/A   Clear
1:53 AM 60.1 °F 53.1 °F 78% 29.93 in 10.0 mi SSE 9.2 mph - N/A   Clear
2:53 AM 57.0 °F 52.0 °F 83% 29.93 in 10.0 mi SE 6.9 mph - N/A   Clear
3:53 AM 59.0 °F 45.0 °F 60% 29.91 in 10.0 mi SSW 10.4 mph - N/A   Clear
4:53 AM 54.0 °F 45.0 °F 72% 29.91 in 10.0 mi South 8.1 mph - N/A   Clear
5:53 AM 57.0 °F 41.0 °F 55% 29.90 in 10.0 mi SSW 10.4 mph - N/A   Clear
6:53 AM 52.0 °F 41.0 °F 66% 29.93 in 10.0 mi Calm Calm - N/A   Clear
7:53 AM 52.0 °F 42.1 °F 69% 29.94 in 10.0 mi East 4.6 mph - N/A   Clear
8:53 AM 57.0 °F 44.1 °F 62% 29.95 in 10.0 mi Calm Calm - N/A   Clear
9:53 AM 66.0 °F 43.0 °F 43% 29.96 in 10.0 mi NE 3.5 mph - N/A   Clear
10:53 AM 72.0 °F 37.9 °F 29% 29.96 in 10.0 mi NNW 5.8 mph - N/A   Clear
11:53 AM 75.9 °F 34.0 °F 22% 29.95 in 10.0 mi Variable 5.8 mph - N/A   Clear
12:53 PM 79.0 °F 30.0 °F 17% 29.94 in 10.0 mi NW 3.5 mph - N/A   Clear
1:53 PM 82.9 °F 26.1 °F 13% 29.91 in 10.0 mi Variable 5.8 mph - N/A   Clear
2:53 PM 84.9 °F 19.0 °F 9% 29.88 in 10.0 mi West 9.2 mph - N/A   Clear
3:53 PM 87.1 °F 19.0 °F 8% 29.84 in 10.0 mi NW 16.1 mph 20.7 mph N/A   Clear
4:53 PM 87.1 °F 18.0 °F 8% 29.83 in 10.0 mi NW 9.2 mph - N/A   Clear
5:53 PM 84.9 °F 18.0 °F 8% 29.81 in 10.0 mi North 5.8 mph - N/A   Clear
6:53 PM 84.0 °F 17.1 °F 8% 29.81 in 10.0 mi NW 9.2 mph - N/A   Clear
7:53 PM 78.1 °F 18.0 °F 10% 29.81 in 10.0 mi North 3.5 mph - N/A   Clear
8:53 PM 73.9 °F 19.9 °F 13% 29.82 in 10.0 mi Calm Calm - N/A   Clear
9:53 PM 73.9 °F 21.9 °F 14% 29.83 in 10.0 mi SE 6.9 mph - N/A   Clear
10:53 PM 71.1 °F 24.1 °F 17% 29.84 in 10.0 mi South 8.1 mph - N/A   Clear
11:53 PM 73.0 °F 35.1 °F 25% 29.84 in 10.0 mi South 5.8 mph - N/A   Clear